WS6A-13 Weather Reports


Display with metric or nautical units.
time (UTC)temp
F
wind
direction
speed
MPH
gust
MPH
rain 1hr
in
rain 24hr
in
rain mn
in
humidity
%
barometer
mb
20260906050004 72 5 0.0 0.0 0.00 0.10 0.00 91 1011.4
20260906044504 73 5 0.0 0.0 0.00 0.10 0.00 91 1011.2
20260906043004 73 5 0.0 0.0 0.00 0.10 0.00 91 1011.0
20260906041504 74 5 0.0 0.0 0.00 0.10 0.00 91 1010.8
20260906040004 74 355 0.0 0.0 0.00 0.10 0.00 91 1010.9
20260906033003 74 355 0.0 0.0 0.00 0.10 0.10 91 1010.9
20260906024503 75 355 0.0 0.0 0.00 0.10 0.10 90 1011.1
20260906023004 75 355 0.0 0.0 0.00 0.10 0.10 90 1011.2
20260906021503 75 355 0.0 0.0 0.00 0.10 0.10 90 1010.9
20260906020004 76 355 0.0 0.0 0.00 0.10 0.10 89 1011.0
20260906014506 76 355 0.0 0.0 0.00 0.10 0.10 89 1010.9
20260906013004 77 355 0.0 0.0 0.00 0.10 0.10 88 1010.8
20260906011503 77 355 0.0 0.0 0.00 0.10 0.10 87 1010.6
20260906010004 77 355 0.0 0.0 0.00 0.10 0.10 86 1010.3
20260906004504 78 355 0.0 0.0 0.00 0.10 0.10 84 1010.2
20260906001504 78 355 0.0 0.0 0.00 0.10 0.10 83 1009.9
20260906000004 78 355 0.0 2.0 0.00 0.10 0.10 83 1009.8
20260905233004 80 57 0.0 0.0 0.00 0.10 0.10 84 1010.2
20260905231504 81 57 0.0 0.0 0.00 0.10 0.10 84 1009.6
20260905230004 81 57 0.0 0.0 0.00 0.10 0.10 84 1009.9
20260905224504 81 57 0.0 0.0 0.00 0.10 0.10 83 1009.5
20260905223004 82 57 0.0 0.0 0.00 0.10 0.10 82 1009.7
20260905221504 83 57 0.0 0.0 0.00 0.10 0.10 81 1009.5
20260905220004 84 57 0.0 0.0 0.00 0.10 0.10 79 1009.3
20260905214504 85 63 0.0 0.0 0.00 0.10 0.10 77 1009.1
20260905211504 87 63 0.0 1.0 0.00 0.10 0.10 74 1009.4
20260905204515 88 69 0.0 1.0 0.00 0.10 0.10 72 1009.8
20260905203004 88 62 0.0 3.0 0.00 0.10 0.10 69 1009.7
20260905201504 89 69 0.0 0.0 0.00 0.10 0.10 68 1009.8
20260905200005 88 42 0.0 1.0 0.00 0.10 0.10 66 1010.0
20260905193004 88 57 0.0 1.0 0.00 0.10 0.10 70 1010.5
20260905191504 87 51 0.0 3.0 0.00 0.10 0.10 68 1010.7
20260905190004 87 81 0.0 5.0 0.00 0.10 0.10 68 1011.1
20260905183004 86 51 0.0 2.0 0.00 0.10 0.10 71 1011.4
20260905180004 84 74 0.0 1.0 0.00 0.10 0.10 71 1011.3
20260905174504 84 105 0.0 1.0 0.00 0.10 0.10 74 1011.3
20260905173004 84 165 0.0 0.0 0.00 0.10 0.10 72 1011.1
20260905171504 85 189 0.0 0.0 0.00 0.10 0.10 72 1011.3
20260905170004 85 245 0.0 2.0 0.00 0.10 0.10 70 1011.1
20260905161503 83 232 0.0 1.0 0.00 0.10 0.10 73 1011.4
20260905160003 81 276 0.0 0.0 0.00 0.10 0.10 73 1011.5
20260905154504 80 62 0.0 1.0 0.00 0.10 0.10 77 1011.9
20260905153004 79 135 0.0 2.0 0.00 0.10 0.10 77 1011.7
20260905151504 78 90 0.0 2.0 0.00 0.10 0.10 80 1011.6
20260905150004 76 80 0.0 2.0 0.00 0.10 0.10 79 1011.6
20260905144504 75 81 1.0 3.0 0.00 0.10 0.10 84 1011.3
20260905143003 74 252 0.0 3.0 0.00 0.10 0.10 86 1010.7
20260905141504 73 241 1.0 3.0 0.00 0.10 0.10 87 1010.6
20260905140004 72 57 0.0 0.0 0.00 0.10 0.10 91 1010.9
20260905134504 70 57 0.0 0.0 0.00 0.10 0.10 93 1011.2
20260905133004 70 57 0.0 0.0 0.00 0.10 0.10 93 1011.6
20260905131504 69 57 0.0 0.0 0.00 0.10 0.10 93 1012.1
20260905130004 69 57 0.0 0.0 0.00 0.10 0.10 93 1012.5
20260905124504 69 57 0.0 0.0 0.00 0.10 0.10 94 1012.7
20260905121503 68 57 0.0 0.0 0.00 0.10 0.10 93 1012.9
20260905120004 68 57 0.0 0.0 0.00 0.10 0.10 93 1012.6
20260905114504 68 57 0.0 0.0 0.00 0.10 0.10 93 1012.6
20260905113004 68 59 0.0 0.0 0.00 0.10 0.10 93 1012.8
20260905111504 68 59 0.0 0.0 0.08 0.10 0.10 92 1012.9
20260905110004 68 59 0.0 0.0 0.09 0.10 0.10 92 1013.1
20260905104504 68 59 0.0 1.0 0.09 0.10 0.10 91 1013.2
20260905103004 68 115 0.0 3.0 0.10 0.10 0.10 90 1013.3
20260905101504 69 44 2.0 8.0 0.02 0.02 0.02 88 1014.0
20260905093004 72 55 2.0 3.0 0.00 0.00 0.00 93 1012.8
20260905091504 72 79 0.0 0.0 0.00 0.00 0.00 92 1011.2
20260905090004 72 79 0.0 0.0 0.00 0.00 0.00 92 1010.8
20260905084504 72 79 0.0 0.0 0.00 0.00 0.00 93 1010.4
20260905081504 72 79 0.0 0.0 0.00 0.00 0.00 93 1010.8
20260905080004 72 79 0.0 0.0 0.00 0.00 0.00 93 1010.8
20260905074504 72 79 0.0 0.0 0.00 0.00 0.00 93 1010.7
20260905073004 71 79 0.0 0.0 0.00 0.00 0.00 93 1010.6
20260905064503 72 79 0.0 0.0 0.00 0.00 0.00 93 1010.5
20260905063004 72 79 0.0 0.0 0.00 0.00 0.00 93 1010.9
20260905061503 72 79 0.0 0.0 0.00 0.00 0.00 92 1011.0
20260905060004 73 79 0.0 0.0 0.00 0.00 0.00 93 1011.3
20260905053003 73 79 0.0 0.0 0.00 0.00 0.00 93 1011.7
20260905051505 73 79 0.0 0.0 0.00 0.00 0.00 93 1011.8